[[{"header":{"parameterUnit":"m.s-1","parameterCategory":1,"la1":30.2991,"la2":30.254,"lo1":-89.0895,"lo2":-89.0444,"dy":0.0017,"dx":0.0017,"nx":28,"ny":28,"refTime":"2023-10-02T09:00:00:Z","depth":0,"parameterNumber":2,"parameterNumberName":"U-component_of_WINDS"},"data":[0,0,0,0,0,0,0,0,0,0,0,0,0,0,0,0,0,0,0,0,0,0,0,0,0,0,0,0,0,0,0,0,0,0,0,0,0,0,0,0,0,0,0,0,0,0,0,0,0,0,0,0,0,0,0,0,0,0,-4.7574,-4.7575,0,-4.7626,-4.7627,-4.7628,-4.745,-4.7445,-4.7439,-4.7434,-4.7492,-4.7498,-4.7505,0,0,0,0,0,0,0,0,0,0,0,0,0,-4.7323,-4.7329,-4.7574,-4.7575,-4.7575,-4.7626,-4.7627,-4.7628,-4.7451,-4.7444,-4.7438,-4.7432,-4.749,-4.7498,-4.7505,0,0,0,0,0,0,0,0,0,0,0,0,0,-4.741,-4.7331,-4.7574,-4.7493,-4.7486,-4.7626,-4.7627,-4.7628,-4.7452,-4.7444,-4.7436,-4.7429,-4.7487,-4.7497,-4.7506,-4.7728,0,0,-4.7536,-4.7541,0,0,0,0,0,0,0,0,-4.7405,-4.7419,-4.7504,-4.7499,-4.7492,-4.7523,-4.756,-4.7662,-4.7454,-4.7466,-4.7434,-4.7425,-4.7509,-4.7517,-4.7544,-4.773,-4.7733,-4.7537,-4.7543,-4.7547,-4.755,0,0,0,0,0,0,0,-4.74,-4.7416,-4.7595,-4.7506,-4.7498,-4.7455,-4.7458,-4.7578,-4.7532,-4.7464,-4.7451,-4.7459,-4.7504,-4.7535,-4.7544,-4.7734,-4.7537,-4.7546,-4.7552,-4.7556,-4.8103,-4.8112,0,0,0,0,0,0,-4.7404,-4.7412,-4.7593,-4.7596,-4.7428,-4.7466,-4.747,-4.7521,-4.753,-4.7524,-4.7466,-4.7451,-4.7522,-4.7533,-4.7546,-4.7805,-4.7547,-4.7557,-4.7562,-4.8095,-4.8105,-4.8115,0,0,0,0,0,0,-4.7399,-4.7421,-4.7591,-4.7501,-4.7519,-4.7479,-4.7538,-4.7527,-4.7557,-4.7532,-4.7523,-4.7506,-4.7517,-4.7532,-4.7683,-4.7804,-4.7561,-4.757,-4.8085,-4.8098,-4.811,-4.8326,0,0,0,0,0,0,-4.7393,-4.7421,-4.7504,-4.7504,-4.7525,-4.7728,-4.7546,-4.7533,-4.7574,-4.7555,-4.7567,-4.7561,-4.7511,-4.767,-4.7693,-4.7814,-4.7578,-4.8074,-4.8091,-4.8106,-4.8308,-4.8345,-4.8376,0,0,0,0,0,-4.7384,-4.7564,-4.7509,-4.7532,-4.7628,-4.7735,-4.7747,-4.7684,-4.7585,-4.7668,-4.7652,-4.7561,-4.7787,-4.7687,-4.7712,-4.7837,-4.8066,-4.8086,-4.8105,-4.8292,-4.8337,-4.8375,0,0,0,0,0,0,-4.7581,-4.7562,-4.7502,-4.7686,-4.7714,-4.7705,-4.7808,-4.7734,-4.7791,-4.7771,-4.7692,-4.7696,-4.7862,-4.7864,-4.7753,-4.8051,-4.7909,-4.7935,-4.8044,-4.8086,-4.812,-4.8116,-4.7586,0,0,0,0,0,-4.7645,-4.7733,-4.7712,-4.7878,-4.7894,-4.785,-4.7894,-4.7843,-4.7869,-4.788,-4.7874,-4.7903,-4.798,-4.8033,-4.8103,-4.8307,-4.8307,-4.8405,-4.8439,-4.8468,-4.8491,-4.8599,-4.8642,-4.8179,-4.8179,-4.8178,0,0,-4.778,-4.7781,-4.7842,-4.7917,-4.7932,-4.8026,-4.786,-4.7966,-4.8035,-4.7896,-4.8038,-4.8036,-4.8063,-4.8241,-4.832,-4.8248,-4.8619,-4.8493,-4.8515,-4.8523,-4.8623,-4.8667,-4.8706,-4.8192,-4.819,-4.8188,0,0,-4.8074,-4.8083,-4.8221,-4.8239,-4.8263,-4.8232,-4.8266,-4.8268,-4.826,-4.8401,-4.8299,-4.838,-4.8515,-4.8538,-4.8568,-4.887,-4.8788,-4.8895,-4.9074,-4.918,-4.9216,-4.9248,-4.9356,-4.9395,-4.8918,-4.8918,-4.8919,0,-4.8239,-4.8374,-4.8302,-4.8415,-4.8451,-4.8328,-4.8467,-4.8489,-4.8536,-4.8564,-4.8483,-4.8649,-4.8658,-4.8841,-4.8914,-4.8942,-4.8978,-4.8893,-4.9216,-4.9248,-4.9277,-4.9378,-4.9419,-4.8931,-4.8929,-4.8928,-4.8927,0,-4.8576,-4.8672,-4.878,-4.8827,-4.8875,-4.9001,-4.8949,-4.9007,-4.8952,-4.893,-4.9075,-4.9082,-4.9151,-4.919,-4.9138,-4.9365,-4.932,-4.923,-4.9086,-4.9335,-4.9429,-4.9468,-4.8949,-4.8945,-4.8941,-4.8938,0,0,-4.8996,-4.8999,-4.9041,-4.906,-4.9077,-4.915,-4.927,-4.9336,-4.9387,-4.9424,-4.9523,-4.9639,-4.9555,-4.9589,-4.9538,-4.9631,-4.987,-4.9529,-4.9528,-4.9592,-5.0121,-5.0189,-5.0235,-4.9816,-4.9823,-4.9828,-5.0118,0,-4.9284,-4.9488,-4.9427,-4.9633,-4.972,-4.9604,-4.9709,-4.9731,-4.9714,-4.9786,-4.9766,-4.985,-4.9732,-4.9752,-4.9839,-4.9823,-4.9975,-4.9801,-4.9908,-4.9913,-4.9905,-5.0284,-5.0357,-5.0631,-5.0155,-5.0161,-5.0165,0,-4.9648,-4.9697,-4.9912,-4.9913,-4.9948,-5.0043,-5.0098,-5.0168,-5.0191,-5.0172,-5.0209,-5.0139,-5.0258,-5.0114,-5.0276,-5.0159,-5.0199,-5.0198,-5.0207,-5.0215,-5.0055,-5.0303,-5.0716,-5.0758,-5.0223,-5.0218,-5.0214,0,-4.9933,-5.0052,-5.0196,-5.0216,-5.0222,-5.0291,-5.0297,-5.0312,-5.0355,-5.0403,-5.0431,-5.0493,-5.0528,-5.0578,-5.0527,-5.0427,-5.0699,-5.0549,-5.0686,-5.0688,-5.0749,-5.0746,-5.1175,-5.0776,-5.0775,-5.0774,-5.0773,0,-5.0261,-5.0397,-5.0323,-5.0412,-5.0561,-5.0489,-5.0639,-5.0631,-5.0646,-5.0731,-5.0635,-5.0718,-5.0645,-5.0721,-5.0683,-5.0823,-5.084,-5.0828,-5.0816,-5.0837,-5.0839,-5.0862,-5.0842,-5.0785,-5.0783,-5.078,-5.0779,0,-5.0604,-5.0561,-5.0709,-5.0702,-5.0703,-5.0814,-5.0807,-5.0889,-5.0864,-5.0974,-5.0995,-5.0957,-5.1042,-5.0995,-5.1084,-5.1057,-5.124,-5.1202,-5.1232,-5.1222,-5.1362,-5.1349,-5.1821,-5.1879,-5.1443,-5.1447,-5.145,0,-5.0817,-5.0919,-5.0922,-5.0971,-5.0983,-5.1065,-5.1108,-5.1041,-5.109,-5.1123,-5.1202,-5.1278,-5.1335,-5.1477,-5.1457,-5.1524,-5.1487,-5.1648,-5.1497,-5.1514,-5.149,-5.1484,-5.1494,-5.1679,-5.1684,-5.1688,-5.1692,0,-5.1199,-5.1172,-5.1237,-5.1296,-5.1349,-5.1392,-5.1427,-5.1474,-5.1407,-5.1467,-5.1552,-5.1597,-5.1685,-5.1763,-5.182,-5.1826,-5.175,-5.1739,-5.1774,-5.1797,-5.181,-5.1804,-5.1315,-5.1729,-5.1725,-5.1722,-5.172,-5.1719,-5.1483,-5.1568,-5.1583,-5.1659,-5.1677,-5.1712,-5.1789,-5.1772,-5.1841,-5.1908,-5.1864,-5.1964,-5.1984,-5.2053,-5.207,-5.2148,-5.2084,-5.2135,-5.2148,-5.2161,-5.218,-5.1797,-5.2158,-5.2157,-5.2156,-5.2155,-5.2154,0,-5.1859,-5.1863,-5.1934,-5.1985,-5.2045,-5.1965,-5.1999,-5.2055,-5.2144,-5.2168,-5.2226,-5.2324,-5.2398,-5.2384,-5.2452,-5.2517,-5.2483,-5.2537,-5.2532,-5.2535,-5.2234,-5.2197,-5.2563,-5.2563,-5.2563,-5.2563,-5.2563,-5.2563,-5.2062,-5.2201,-5.2176,-5.2324,-5.2326,-5.2422,-5.2449,-5.2481,-5.25,-5.2613,-5.2673,-5.2663,-5.2672,-5.274,-5.2805,-5.2798,-5.2828,-5.2895,-5.2877,-5.2596,-5.2556,-5.2517,-5.2482,-5.2902,-5.2903,-5.317,-5.3173,-5.3175]},{"header":{"parameterUnit":"m.s-1","parameterCategory":1,"la1":30.2991,"la2":30.254,"lo1":-89.0895,"lo2":-89.0444,"dy":0.0017,"dx":0.0017,"nx":28,"ny":28,"refTime":"2023-10-02T09:00:00:Z","depth":0,"parameterNumber":3,"parameterNumberName":"V-component_of_WINDS"},"data":[0,0,0,0,0,0,0,0,0,0,0,0,0,0,0,0,0,0,0,0,0,0,0,0,0,0,0,0,0,0,0,0,0,0,0,0,0,0,0,0,0,0,0,0,0,0,0,0,0,0,0,0,0,0,0,0,0,0,-1.6583,-1.6584,0,-1.6655,-1.6655,-1.6656,-1.6705,-1.6705,-1.6706,-1.6706,-1.6774,-1.6775,-1.6777,0,0,0,0,0,0,0,0,0,0,0,0,0,-1.6483,-1.6484,-1.6583,-1.6584,-1.6585,-1.6655,-1.6656,-1.6656,-1.6705,-1.6705,-1.6706,-1.6706,-1.6774,-1.6775,-1.6777,0,0,0,0,0,0,0,0,0,0,0,0,0,-1.6537,-1.6485,-1.6583,-1.6617,-1.6621,-1.6654,-1.6656,-1.6657,-1.6705,-1.6705,-1.6706,-1.6706,-1.6773,-1.6775,-1.6777,-1.678,0,0,-1.6784,-1.6785,0,0,0,0,0,0,0,0,-1.6534,-1.6541,-1.6611,-1.6615,-1.6619,-1.6672,-1.6645,-1.6698,-1.6705,-1.6673,-1.6706,-1.6707,-1.6739,-1.6744,-1.6756,-1.6783,-1.6786,-1.6784,-1.6786,-1.6786,-1.6787,0,0,0,0,0,0,0,-1.653,-1.6538,-1.6611,-1.6612,-1.6617,-1.6628,-1.6636,-1.6655,-1.6702,-1.6676,-1.6679,-1.6687,-1.6741,-1.6754,-1.6758,-1.6787,-1.6784,-1.6786,-1.6787,-1.6788,-1.6819,-1.6818,0,0,0,0,0,0,-1.6522,-1.6535,-1.6609,-1.6613,-1.6577,-1.6629,-1.6638,-1.6654,-1.6702,-1.671,-1.6687,-1.6689,-1.675,-1.6756,-1.6761,-1.6766,-1.6786,-1.6789,-1.679,-1.6819,-1.6819,-1.6818,0,0,0,0,0,0,-1.652,-1.6528,-1.6606,-1.6575,-1.6586,-1.663,-1.6647,-1.6655,-1.6668,-1.671,-1.6718,-1.6692,-1.6751,-1.6758,-1.6775,-1.6769,-1.679,-1.6792,-1.682,-1.6819,-1.6818,-1.6777,0,0,0,0,0,0,-1.6516,-1.6527,-1.653,-1.6575,-1.6587,-1.662,-1.6647,-1.6656,-1.6672,-1.6676,-1.6717,-1.6724,-1.6752,-1.6771,-1.6777,-1.6773,-1.6793,-1.6821,-1.682,-1.6819,-1.6779,-1.6775,-1.6772,0,0,0,0,0,-1.6513,-1.6514,-1.6529,-1.6538,-1.6592,-1.662,-1.6627,-1.666,-1.6672,-1.6674,-1.6701,-1.6723,-1.6769,-1.6773,-1.678,-1.6776,-1.6821,-1.682,-1.6819,-1.6781,-1.6776,-1.6772,0,0,0,0,0,0,-1.6465,-1.6521,-1.6538,-1.6555,-1.6583,-1.6628,-1.6632,-1.6654,-1.6677,-1.668,-1.6718,-1.6727,-1.674,-1.676,-1.6763,-1.678,-1.6798,-1.6798,-1.6767,-1.6762,-1.6759,-1.6753,-1.6795,0,0,0,0,0,-1.6457,-1.6477,-1.6524,-1.6534,-1.6547,-1.6587,-1.6601,-1.6624,-1.6653,-1.6665,-1.6693,-1.6719,-1.674,-1.6753,-1.6774,-1.6783,-1.6792,-1.6784,-1.678,-1.6777,-1.6776,-1.6781,-1.6777,-1.6814,-1.6814,-1.6814,0,0,-1.6439,-1.6472,-1.6482,-1.6525,-1.6549,-1.6567,-1.6596,-1.6614,-1.6628,-1.6667,-1.6685,-1.6707,-1.6739,-1.6752,-1.6759,-1.6769,-1.6768,-1.6775,-1.6772,-1.6773,-1.6779,-1.6775,-1.6772,-1.6813,-1.6814,-1.6814,0,0,-1.6417,-1.6444,-1.6455,-1.6479,-1.6516,-1.6543,-1.6546,-1.6588,-1.6605,-1.6624,-1.6654,-1.6669,-1.6704,-1.6725,-1.6741,-1.6726,-1.6746,-1.6732,-1.6711,-1.6716,-1.6713,-1.671,-1.6704,-1.6701,-1.6731,-1.6731,-1.6731,0,-1.6389,-1.642,-1.6458,-1.6474,-1.6491,-1.653,-1.654,-1.6561,-1.6602,-1.6612,-1.6623,-1.6668,-1.6692,-1.671,-1.6706,-1.6718,-1.6721,-1.6727,-1.6711,-1.6708,-1.6707,-1.6701,-1.6698,-1.6729,-1.6729,-1.673,-1.673,0,-1.6384,-1.6404,-1.6408,-1.6449,-1.6467,-1.648,-1.6518,-1.6532,-1.6553,-1.6578,-1.6597,-1.6627,-1.6655,-1.6662,-1.6682,-1.6682,-1.6687,-1.6704,-1.6722,-1.67,-1.6695,-1.6693,-1.6726,-1.6727,-1.6727,-1.6728,0,0,-1.6332,-1.6394,-1.6395,-1.6413,-1.6457,-1.6473,-1.6487,-1.6516,-1.6526,-1.6553,-1.6564,-1.6594,-1.661,-1.6627,-1.665,-1.6655,-1.6639,-1.6671,-1.6672,-1.6662,-1.6639,-1.6625,-1.6622,-1.6654,-1.6654,-1.6653,-1.6636,0,-1.6314,-1.6344,-1.6378,-1.6395,-1.6413,-1.6451,-1.6463,-1.649,-1.6514,-1.6531,-1.6557,-1.6576,-1.6597,-1.6607,-1.6614,-1.664,-1.6635,-1.6642,-1.6663,-1.6663,-1.6652,-1.6619,-1.6604,-1.6586,-1.6634,-1.6634,-1.6634,0,-1.6297,-1.6324,-1.6343,-1.6385,-1.6394,-1.6405,-1.6434,-1.6451,-1.6482,-1.6499,-1.6519,-1.6544,-1.656,-1.6577,-1.6597,-1.6601,-1.6612,-1.6626,-1.6626,-1.6628,-1.6646,-1.6618,-1.6581,-1.6578,-1.6631,-1.6631,-1.6632,0,-1.6255,-1.6296,-1.6313,-1.6328,-1.6377,-1.6384,-1.6404,-1.6437,-1.6451,-1.6476,-1.6486,-1.6512,-1.6525,-1.6544,-1.6575,-1.6585,-1.6591,-1.6612,-1.6604,-1.6603,-1.6602,-1.6601,-1.6564,-1.6612,-1.6612,-1.6612,-1.6612,0,-1.6231,-1.624,-1.6294,-1.6304,-1.6316,-1.6355,-1.6365,-1.6389,-1.6417,-1.6431,-1.6464,-1.6476,-1.6518,-1.6534,-1.6559,-1.6571,-1.6577,-1.659,-1.6595,-1.6585,-1.6583,-1.6591,-1.6593,-1.6611,-1.6612,-1.6612,-1.6612,0,-1.6185,-1.6222,-1.6242,-1.6288,-1.63,-1.6306,-1.6344,-1.6354,-1.6381,-1.6398,-1.6404,-1.6444,-1.6465,-1.6499,-1.653,-1.6546,-1.6553,-1.6564,-1.6543,-1.6546,-1.6536,-1.6535,-1.6501,-1.6498,-1.6549,-1.6549,-1.6548,0,-1.6166,-1.6174,-1.6222,-1.6234,-1.6254,-1.6274,-1.629,-1.6329,-1.6344,-1.638,-1.6385,-1.6409,-1.643,-1.6462,-1.6492,-1.6516,-1.6526,-1.6513,-1.653,-1.6519,-1.6524,-1.6522,-1.6522,-1.6508,-1.6507,-1.6507,-1.6506,0,-1.6127,-1.6145,-1.6168,-1.6197,-1.6215,-1.624,-1.6265,-1.6273,-1.6317,-1.6332,-1.6355,-1.6371,-1.6403,-1.6426,-1.6453,-1.6473,-1.6496,-1.6501,-1.65,-1.6489,-1.6475,-1.6481,-1.653,-1.6501,-1.6502,-1.6502,-1.6502,-1.6503,-1.6093,-1.6102,-1.6137,-1.6161,-1.6185,-1.6208,-1.6219,-1.6248,-1.6268,-1.6298,-1.632,-1.634,-1.6371,-1.6411,-1.6429,-1.6445,-1.6455,-1.6454,-1.6453,-1.6452,-1.6447,-1.6475,-1.645,-1.645,-1.645,-1.6451,-1.6451,0,-1.6055,-1.6079,-1.6101,-1.6137,-1.6155,-1.6178,-1.6208,-1.6221,-1.6239,-1.6267,-1.6287,-1.6313,-1.6335,-1.6368,-1.6392,-1.6398,-1.641,-1.6403,-1.6402,-1.6406,-1.6438,-1.6435,-1.6394,-1.6394,-1.6394,-1.6394,-1.6394,-1.6394,-1.6037,-1.6053,-1.6075,-1.6103,-1.6127,-1.6149,-1.6164,-1.6185,-1.6207,-1.6234,-1.6253,-1.6276,-1.6305,-1.6332,-1.6352,-1.6362,-1.6368,-1.6358,-1.637,-1.6398,-1.6404,-1.6409,-1.6406,-1.6359,-1.6359,-1.6336,-1.6336,-1.6336]}]]